Retour au catalogue

COSMOS 970 DEB

ActifLEO
NORAD 12942·DEBRIS·🇷🇺 Russia

Lancé Dec 21, 1977 depuis Baikonur Cosmodrome

Loading…

Prochains Passages (prochaines 24 heures)

TLE

FraisSource: Space-Track

Époque: Sep 14, 2026, 03:22 UTC

1 12942U 77121AZ  26257.14071449  .00000093  00000-0  30507-3 0  9998
2 12942  65.8310 312.9971 0104750 170.0609 208.6548 13.37901360205536

Suivez COSMOS 970 DEB en temps réel avec AllMySat

Download on the App Store